Location: Fazenda Monte Alegre
(4.8500°S, 38.0333°W)
Time: 17:27:48
(UTC+00:00)

CZ-2C R/B - Pass Details

Date: 24 September 2020
Orbit: 704 x 907 km, 98.1° (Epoch: 24 October)

Event Time Altitude Azimuth Distance (km) Brightness Sun altitude
Rises 21:54:59 0° 168° (SSE) 3,148 6.1 -22.6°
Reaches altitude 10° 21:57:13 10° 168° (SSE) 2,244 5.3 -23.2°
Maximum altitude 22:02:09 89° 82° (E) 766 2.9 -24.4°
Drops below altitude 10° 22:07:19 10° 348° (NNW) 2,350 5.6 -25.7°
Sets 22:09:42 0° 348° (NNW) 3,308 6.4 -26.3°
